Location: Unspecified
(0.0000°N, 0.0000°E)
Time: 20:17:06
(UTC+00:00)

ARIANE 2 DEB - Pass Details

Date: 06 March 2026
Orbit: 701 x 35694 km, 8.0° (Epoch: 21 April)

Event Time Altitude Azimuth Distance (km) Brightness Sun altitude
Rises 14:20:13 0° 87° (E) 35,525 ? 57.3°
Reaches altitude 10° 15:50:29 10° 89° (E) 39,728 ? 35.0°
Maximum altitude 19:32:38 31° 95° (E) 29,344 ? -20.3°
Enters shadow 20:17:02 28° 96° (E) 23,657 ? -31.3°
Exits shadow 21:10:27 - 98° (E) 15,500 ? -44.6°
Sets 21:16:20 0° 98° (E) 14,673 ? -46.0°
